Погода в Чапыгах

Россия / Костромская область     57°42′00″N   43°13′02″E
темп.,
°C
ветер,
м/с
пор.,
м/с
влажн.,
%
обл.,
%
осадки,
мм/ч
давл.,
гПа
погр.,
м
29 июля, чт
чт2900:00+15юз247548 0.0 101172
03:00+14юз26925 0.0 1010119
06:00+16юз2784100 0.0 1009213
09:00+21ююз3466100 0.0 1008789
12:00+17ююз2589100 0.1 1007262
15:00+19ю3683100 0.1 1006641
18:00+17ююз2794100 0.1 1004418
21:00+16ююз249943 0.1 100392
30 июля, пт
пт3000:00+15юз289833 0.0 1003193
03:00+15зюз27986 0.0 1003137
06:00+17зюз28915 0.0 1003244
09:00+24з36565 0.0 1003943
12:00+27з3642100 0.0 10032386
15:00+23зюз1265100 0.0 100338
18:00+22юз2268100 0.0 100329
21:00+19юз3887100 0.6 1003181
31 июля, сб
сб3100:00+16ююз2798100 0.6 1003173
03:00+16ююз2899100 1.3 1003201
06:00+17юз2697100 2.5 1002246
09:00+20зюз488519 3.0 1002475
12:00+25з5103914 0.4 10022338
15:00+26з6103376 0.4 10022766
18:00+24з410426 0.0 10031749
21:00+21з3105057 0.0 1004612
1 августа, вс
вс100:00+15юз39715 0.0 1005182
03:00+15юз310750 0.0 1006244
06:00+16зюз3975100 0.0 1007300
09:00+22зюз4760100 0.0 1008913
12:00+25зюз5848100 0.0 10081681
15:00+23сз3556100 0.0 10081240
18:00+17вюв2592100 0.6 1008136
21:00+16ююз31095100 1.5 1008420
2 августа, пн
пн200:00+16зюз269874 0.0 1008213
03:00+14зюз2399100 0.0 100857
06:00+16юз1496100 0.0 1009120
09:00+21юз23726 0.0 1009441
12:00+26ююз464536 0.0 10081866
15:00+29ююз473614 0.0 10072465
18:00+26ю3747100 0.0 1006413
21:00+18ююв3589100 1.1 100586